Time,TemperatureF,DewpointF,PressureIn,WindDirection,WindDirectionDegrees,WindSpeedMPH,WindSpeedGustMPH,Humidity,HourlyPrecipIn,Conditions,Clouds,dailyrainin,SoftwareType,DateUTC
2013-01-10 00:05:00,50.0,48.1,30.37,SW,219,0.0,0.0,93,0.00,,,0.00,Wunderground v.1.15,2013-01-10 05:05:00,
2013-01-10 00:10:00,49.9,48.0,30.37,SW,221,0.0,0.0,93,0.00,,,0.00,Wunderground v.1.15,2013-01-10 05:10:00,
2013-01-10 00:15:00,49.7,47.8,30.38,SW,219,0.0,0.0,93,0.00,,,0.00,Wunderground v.1.15,2013-01-10 05:15:00,
2013-01-10 00:20:00,49.8,47.9,30.38,SW,221,0.0,0.0,93,0.00,,,0.00,Wunderground v.1.15,2013-01-10 05:20:00,
2013-01-10 00:25:00,49.6,47.7,30.38,SW,219,0.0,0.0,93,0.00,,,0.00,Wunderground v.1.15,2013-01-10 05:25:00,
2013-01-10 00:30:00,49.5,47.6,30.37,SW,221,0.0,0.0,93,0.00,,,0.00,Wunderground v.1.15,2013-01-10 05:30:00,
2013-01-10 00:35:00,49.4,47.5,30.37,SW,219,0.0,0.0,93,0.00,,,0.00,Wunderground v.1.15,2013-01-10 05:35:00,
2013-01-10 00:45:00,49.3,47.4,30.37,SW,219,0.0,0.0,93,0.00,,,0.00,Wunderground v.1.15,2013-01-10 05:45:00,
2013-01-10 00:50:00,49.3,47.4,30.37,SW,219,0.0,0.0,93,0.00,,,0.00,Wunderground v.1.15,2013-01-10 05:50:00,
2013-01-10 00:55:00,49.1,47.2,30.36,SW,219,0.0,0.0,93,0.00,,,0.00,Wunderground v.1.15,2013-01-10 05:55:00,
2013-01-10 01:00:00,49.0,47.1,30.36,SW,219,0.0,0.0,93,0.00,,,0.00,Wunderground v.1.15,2013-01-10 06:00:00,
2013-01-10 01:10:00,48.7,46.8,30.36,SW,219,0.0,0.0,93,0.00,,,0.00,Wunderground v.1.15,2013-01-10 06:10:00,
2013-01-10 01:15:00,48.7,46.8,30.36,SW,219,0.0,0.0,93,0.00,,,0.00,Wunderground v.1.15,2013-01-10 06:15:00,
2013-01-10 01:20:00,48.7,46.8,30.35,SW,219,0.0,0.0,93,0.00,,,0.00,Wunderground v.1.15,2013-01-10 06:20:00,
2013-01-10 01:25:00,48.7,46.8,30.36,SW,221,0.0,0.0,93,0.00,,,0.00,Wunderground v.1.15,2013-01-10 06:25:00,
2013-01-10 01:30:00,48.9,47.0,30.36,SW,219,0.0,0.0,93,0.00,,,0.00,Wunderground v.1.15,2013-01-10 06:30:00,
2013-01-10 01:35:00,49.0,47.1,30.36,SW,221,0.0,0.0,93,0.00,,,0.00,Wunderground v.1.15,2013-01-10 06:35:00,
2013-01-10 01:40:00,48.8,46.9,30.36,SW,221,0.0,0.0,93,0.00,,,0.00,Wunderground v.1.15,2013-01-10 06:40:00,
2013-01-10 01:45:00,48.9,47.0,30.36,SW,219,0.0,0.0,93,0.00,,,0.00,Wunderground v.1.15,2013-01-10 06:45:00,
2013-01-10 01:50:00,48.7,46.8,30.36,SW,219,0.0,0.0,93,0.00,,,0.00,Wunderground v.1.15,2013-01-10 06:50:00,
2013-01-10 01:55:00,48.5,46.6,30.36,SW,221,0.0,0.0,93,0.00,,,0.00,Wunderground v.1.15,2013-01-10 06:55:00,
2013-01-10 02:00:00,48.4,46.5,30.37,SW,219,0.0,0.0,93,0.00,,,0.00,Wunderground v.1.15,2013-01-10 07:00:00,
2013-01-10 02:05:00,48.4,46.5,30.37,SW,221,0.0,0.0,93,0.00,,,0.00,Wunderground v.1.15,2013-01-10 07:05:00,
2013-01-10 02:10:00,48.5,46.6,30.37,SW,219,0.0,0.0,93,0.00,,,0.00,Wunderground v.1.15,2013-01-10 07:10:00,
2013-01-10 02:15:00,48.2,46.3,30.36,SW,219,0.0,0.0,93,0.00,,,0.00,Wunderground v.1.15,2013-01-10 07:15:00,
2013-01-10 02:20:00,48.0,46.1,30.37,SW,221,0.0,0.0,93,0.00,,,0.00,Wunderground v.1.15,2013-01-10 07:20:00,
2013-01-10 02:25:00,48.1,46.2,30.37,SW,221,0.0,0.0,93,0.00,,,0.00,Wunderground v.1.15,2013-01-10 07:25:00,
2013-01-10 02:30:00,48.2,46.3,30.37,SW,221,0.0,0.0,93,0.00,,,0.00,Wunderground v.1.15,2013-01-10 07:30:00,
2013-01-10 02:35:00,48.2,46.3,30.37,SW,219,0.0,0.0,93,0.00,,,0.00,Wunderground v.1.15,2013-01-10 07:35:00,
2013-01-10 02:40:00,48.1,46.2,30.37,SW,221,0.0,0.0,93,0.00,,,0.00,Wunderground v.1.15,2013-01-10 07:40:00,
2013-01-10 02:45:00,48.0,46.1,30.37,SW,221,0.0,0.0,93,0.00,,,0.00,Wunderground v.1.15,2013-01-10 07:45:00,
2013-01-10 02:55:00,47.9,46.0,30.37,SW,221,0.0,0.0,93,0.00,,,0.00,Wunderground v.1.15,2013-01-10 07:55:00,
2013-01-10 03:00:00,47.7,45.8,30.37,SW,221,0.0,0.0,93,0.00,,,0.00,Wunderground v.1.15,2013-01-10 08:00:00,
2013-01-10 03:05:00,47.5,45.6,30.37,SW,221,0.0,0.0,93,0.00,,,0.00,Wunderground v.1.15,2013-01-10 08:05:00,
2013-01-10 03:10:00,47.5,45.6,30.37,SW,221,0.0,0.0,93,0.00,,,0.00,Wunderground v.1.15,2013-01-10 08:10:00,
2013-01-10 03:15:00,47.4,45.5,30.37,SW,220,0.0,0.0,93,0.00,,,0.00,Wunderground v.1.15,2013-01-10 08:15:00,
2013-01-10 03:20:00,47.1,45.2,30.37,SW,221,0.0,0.0,93,0.00,,,0.00,Wunderground v.1.15,2013-01-10 08:20:00,
2013-01-10 03:25:00,47.0,45.1,30.37,SW,221,0.0,0.0,93,0.00,,,0.00,Wunderground v.1.15,2013-01-10 08:25:00,
2013-01-10 03:30:00,46.9,45.0,30.37,SW,221,0.0,0.0,93,0.00,,,0.00,Wunderground v.1.15,2013-01-10 08:30:00,
2013-01-10 03:35:00,47.1,45.2,30.37,SW,221,0.0,0.0,93,0.00,,,0.00,Wunderground v.1.15,2013-01-10 08:35:00,
2013-01-10 03:40:00,47.0,45.1,30.37,SW,221,0.0,0.0,93,0.00,,,0.00,Wunderground v.1.15,2013-01-10 08:40:00,
2013-01-10 03:45:00,46.8,44.9,30.36,SW,221,0.0,0.0,93,0.00,,,0.00,Wunderground v.1.15,2013-01-10 08:45:00,
2013-01-10 03:50:00,46.6,44.7,30.36,SW,221,0.0,0.0,93,0.00,,,0.00,Wunderground v.1.15,2013-01-10 08:50:00,
2013-01-10 03:55:00,46.6,44.7,30.36,SW,221,0.0,0.0,93,0.00,,,0.00,Wunderground v.1.15,2013-01-10 08:55:00,
2013-01-10 04:00:00,46.4,44.5,30.36,SW,221,0.0,0.0,93,0.00,,,0.00,Wunderground v.1.15,2013-01-10 09:00:00,
2013-01-10 04:05:00,46.4,44.5,30.36,SW,221,0.0,0.0,93,0.00,,,0.00,Wunderground v.1.15,2013-01-10 09:05:00,
2013-01-10 04:10:00,46.3,44.4,30.35,SW,219,0.0,0.0,93,0.00,,,0.00,Wunderground v.1.15,2013-01-10 09:10:00,
2013-01-10 04:15:00,46.1,44.2,30.35,SW,221,0.0,0.0,93,0.00,,,0.00,Wunderground v.1.15,2013-01-10 09:15:00,
2013-01-10 04:20:00,46.1,44.2,30.35,SW,221,0.0,0.0,93,0.00,,,0.00,Wunderground v.1.15,2013-01-10 09:20:00,
2013-01-10 04:30:00,46.0,44.1,30.34,SW,221,0.0,0.0,93,0.00,,,0.00,Wunderground v.1.15,2013-01-10 09:30:00,
2013-01-10 04:35:00,46.1,44.2,30.34,SW,221,0.0,0.0,93,0.00,,,0.00,Wunderground v.1.15,2013-01-10 09:35:00,
2013-01-10 04:40:00,46.0,44.1,30.34,SW,221,0.0,0.0,93,0.00,,,0.00,Wunderground v.1.15,2013-01-10 09:40:00,
2013-01-10 04:45:00,45.9,44.0,30.35,SW,221,0.0,0.0,93,0.00,,,0.00,Wunderground v.1.15,2013-01-10 09:45:00,
2013-01-10 04:50:00,46.0,44.1,30.35,SW,221,0.0,0.0,93,0.00,,,0.00,Wunderground v.1.15,2013-01-10 09:50:00,
2013-01-10 04:55:00,45.8,43.9,30.35,SW,221,0.0,0.0,93,0.00,,,0.00,Wunderground v.1.15,2013-01-10 09:55:00,
2013-01-10 05:00:00,45.5,43.6,30.35,SW,221,0.0,0.0,93,0.00,,,0.00,Wunderground v.1.15,2013-01-10 10:00:00,
2013-01-10 05:10:00,45.3,43.4,30.35,SW,219,0.0,0.0,93,0.00,,,0.00,Wunderground v.1.15,2013-01-10 10:10:00,
2013-01-10 05:15:00,45.3,43.4,30.35,SW,221,0.0,0.0,93,0.00,,,0.00,Wunderground v.1.15,2013-01-10 10:15:00,
2013-01-10 05:20:00,45.3,43.4,30.35,SW,221,0.0,0.0,93,0.00,,,0.00,Wunderground v.1.15,2013-01-10 10:20:00,
2013-01-10 05:25:00,45.3,43.4,30.35,SW,221,0.0,0.0,93,0.00,,,0.00,Wunderground v.1.15,2013-01-10 10:25:00,
2013-01-10 05:30:00,45.3,43.4,30.36,SW,221,0.0,0.0,93,0.00,,,0.00,Wunderground v.1.15,2013-01-10 10:30:00,
2013-01-10 05:35:00,45.3,43.4,30.35,SW,221,0.0,0.0,93,0.00,,,0.00,Wunderground v.1.15,2013-01-10 10:35:00,
2013-01-10 05:40:00,45.1,43.2,30.36,SW,221,0.0,0.0,93,0.00,,,0.00,Wunderground v.1.15,2013-01-10 10:40:00,
2013-01-10 05:45:00,45.0,43.1,30.36,SW,221,0.0,0.0,93,0.00,,,0.00,Wunderground v.1.15,2013-01-10 10:45:00,
2013-01-10 05:50:00,44.9,43.0,30.36,SW,221,0.0,0.0,93,0.00,,,0.00,Wunderground v.1.15,2013-01-10 10:50:00,
2013-01-10 05:55:00,44.8,42.9,30.36,SW,221,0.0,0.0,93,0.00,,,0.00,Wunderground v.1.15,2013-01-10 10:55:00,
2013-01-10 06:00:00,44.8,42.9,30.36,SW,221,0.0,0.0,93,0.00,,,0.00,Wunderground v.1.15,2013-01-10 11:00:00,
2013-01-10 06:10:00,44.7,42.8,30.36,SW,221,0.0,0.0,93,0.00,,,0.00,Wunderground v.1.15,2013-01-10 11:10:00,
2013-01-10 06:15:00,44.6,42.7,30.37,SW,221,0.0,0.0,93,0.00,,,0.00,Wunderground v.1.15,2013-01-10 11:15:00,
2013-01-10 06:20:00,44.8,42.9,30.37,SW,221,0.0,0.0,93,0.00,,,0.00,Wunderground v.1.15,2013-01-10 11:20:00,
2013-01-10 06:25:00,44.7,42.8,30.37,SW,221,0.0,0.0,93,0.00,,,0.00,Wunderground v.1.15,2013-01-10 11:25:00,
2013-01-10 06:30:00,44.7,42.8,30.37,SW,221,0.0,0.0,93,0.00,,,0.00,Wunderground v.1.15,2013-01-10 11:30:00,
2013-01-10 06:35:00,44.5,42.6,30.37,SW,221,0.0,0.0,93,0.00,,,0.00,Wunderground v.1.15,2013-01-10 11:35:00,
2013-01-10 06:40:00,44.3,42.4,30.38,SW,221,0.0,0.0,93,0.00,,,0.00,Wunderground v.1.15,2013-01-10 11:40:00,
2013-01-10 06:45:00,44.2,42.3,30.38,SW,221,0.0,0.0,93,0.00,,,0.00,Wunderground v.1.15,2013-01-10 11:45:00,
2013-01-10 06:50:00,44.3,42.4,30.38,SW,221,0.0,0.0,93,0.00,,,0.00,Wunderground v.1.15,2013-01-10 11:50:00,
2013-01-10 06:55:00,44.3,42.4,30.38,SW,221,0.0,0.0,93,0.00,,,0.00,Wunderground v.1.15,2013-01-10 11:55:00,
2013-01-10 07:00:00,44.4,42.5,30.38,SW,221,0.0,0.0,93,0.00,,,0.00,Wunderground v.1.15,2013-01-10 12:00:00,
2013-01-10 07:05:00,44.3,42.4,30.38,SW,221,0.0,0.0,93,0.00,,,0.00,Wunderground v.1.15,2013-01-10 12:05:00,
2013-01-10 07:10:00,44.3,42.4,30.39,SW,221,0.0,0.0,93,0.00,,,0.00,Wunderground v.1.15,2013-01-10 12:10:00,
2013-01-10 07:15:00,43.9,42.0,30.39,SW,221,0.0,0.0,93,0.00,,,0.00,Wunderground v.1.15,2013-01-10 12:15:00,
2013-01-10 07:20:00,43.6,41.7,30.39,SW,221,0.0,0.0,93,0.00,,,0.00,Wunderground v.1.15,2013-01-10 12:20:00,
2013-01-10 07:25:00,43.6,41.7,30.39,SW,221,0.0,0.0,93,0.00,,,0.00,Wunderground v.1.15,2013-01-10 12:25:00,
2013-01-10 07:30:00,43.7,41.8,30.39,SW,221,0.0,0.0,93,0.00,,,0.00,Wunderground v.1.15,2013-01-10 12:30:00,
2013-01-10 07:35:00,43.7,41.8,30.39,SW,221,0.0,0.0,93,0.00,,,0.00,Wunderground v.1.15,2013-01-10 12:35:00,
2013-01-10 07:40:00,43.7,41.8,30.40,SW,221,0.0,0.0,93,0.00,,,0.00,Wunderground v.1.15,2013-01-10 12:40:00,
2013-01-10 07:45:00,43.7,41.8,30.40,SW,221,0.0,0.0,93,0.00,,,0.00,Wunderground v.1.15,2013-01-10 12:45:00,
2013-01-10 07:50:00,43.7,41.8,30.40,SW,221,0.0,0.0,93,0.00,,,0.00,Wunderground v.1.15,2013-01-10 12:50:00,
2013-01-10 07:55:00,43.9,42.0,30.40,SW,221,0.0,0.0,93,0.00,,,0.00,Wunderground v.1.15,2013-01-10 12:55:00,
2013-01-10 08:00:00,44.3,42.4,30.40,SW,221,0.0,0.0,93,0.00,,,0.00,Wunderground v.1.15,2013-01-10 13:00:00,
2013-01-10 08:10:00,44.3,42.4,30.40,SW,221,0.0,0.0,93,0.00,,,0.00,Wunderground v.1.15,2013-01-10 13:10:00,
2013-01-10 08:20:00,44.5,42.6,30.40,SW,219,0.0,0.0,93,0.00,,,0.00,Wunderground v.1.15,2013-01-10 13:20:00,
2013-01-10 08:25:00,44.5,42.6,30.40,SW,221,0.0,0.0,93,0.00,,,0.00,Wunderground v.1.15,2013-01-10 13:25:00,
2013-01-10 08:30:00,44.8,42.9,30.41,SW,221,0.0,0.0,93,0.00,,,0.00,Wunderground v.1.15,2013-01-10 13:30:00,
2013-01-10 08:35:00,45.1,43.2,30.41,SW,219,0.0,0.0,93,0.00,,,0.00,Wunderground v.1.15,2013-01-10 13:35:00,
2013-01-10 08:40:00,45.4,43.8,30.41,SW,221,0.0,0.0,94,0.00,,,0.00,Wunderground v.1.15,2013-01-10 13:40:00,
2013-01-10 08:45:00,45.8,44.2,30.42,SW,219,0.0,0.0,94,0.00,,,0.00,Wunderground v.1.15,2013-01-10 13:45:00,
2013-01-10 08:50:00,46.4,44.8,30.42,SW,219,0.0,0.0,94,0.00,,,0.00,Wunderground v.1.15,2013-01-10 13:50:00,
2013-01-10 08:55:00,47.1,45.5,30.42,SW,219,0.0,0.0,94,0.00,,,0.00,Wunderground v.1.15,2013-01-10 13:55:00,
2013-01-10 09:00:00,48.1,46.5,30.42,SW,219,0.0,0.0,94,0.00,,,0.00,Wunderground v.1.15,2013-01-10 14:00:00,
2013-01-10 09:05:00,48.7,47.1,30.42,SW,219,0.0,0.0,94,0.00,,,0.00,Wunderground v.1.15,2013-01-10 14:05:00,
2013-01-10 09:10:00,49.2,47.5,30.42,SW,219,0.0,0.0,94,0.00,,,0.00,Wunderground v.1.15,2013-01-10 14:10:00,
2013-01-10 09:15:00,49.6,47.9,30.42,SW,219,0.0,0.0,94,0.00,,,0.00,Wunderground v.1.15,2013-01-10 14:15:00,
2013-01-10 09:20:00,50.1,48.4,30.42,SW,221,0.0,0.0,94,0.00,,,0.00,Wunderground v.1.15,2013-01-10 14:20:00,
2013-01-10 09:25:00,50.8,49.1,30.42,SW,219,0.0,0.0,94,0.00,,,0.00,Wunderground v.1.15,2013-01-10 14:25:00,
2013-01-10 09:30:00,51.3,49.6,30.42,ESE,123,0.0,0.0,94,0.00,,,0.00,Wunderground v.1.15,2013-01-10 14:30:00,
2013-01-10 09:35:00,52.0,50.3,30.42,SE,124,0.0,0.0,94,0.00,,,0.00,Wunderground v.1.15,2013-01-10 14:35:00,
2013-01-10 09:40:00,52.6,50.9,30.42,ESE,121,0.0,0.0,94,0.00,,,0.00,Wunderground v.1.15,2013-01-10 14:40:00,
2013-01-10 09:45:00,53.2,51.5,30.42,ENE,63,0.0,1.0,94,0.00,,,0.00,Wunderground v.1.15,2013-01-10 14:45:00,
2013-01-10 09:50:00,54.0,52.3,30.42,ENE,63,1.0,3.0,94,0.00,,,0.00,Wunderground v.1.15,2013-01-10 14:50:00,
2013-01-10 09:55:00,55.1,53.1,30.42,ENE,75,2.0,3.0,93,0.00,,,0.00,Wunderground v.1.15,2013-01-10 14:55:00,
2013-01-10 10:00:00,56.7,52.9,30.42,East,93,2.0,2.0,87,0.00,,,0.00,Wunderground v.1.15,2013-01-10 15:00:00,
2013-01-10 10:05:00,57.6,53.1,30.42,ENE,78,2.0,2.0,85,0.00,,,0.00,Wunderground v.1.15,2013-01-10 15:05:00,
2013-01-10 10:10:00,58.5,53.4,30.42,ENE,75,2.0,2.0,83,0.00,,,0.00,Wunderground v.1.15,2013-01-10 15:10:00,
2013-01-10 10:20:00,60.1,53.9,30.41,East,94,1.0,1.0,80,0.00,,,0.00,Wunderground v.1.15,2013-01-10 15:20:00,
2013-01-10 10:25:00,60.9,54.0,30.41,East,79,0.0,1.0,78,0.00,,,0.00,Wunderground v.1.15,2013-01-10 15:25:00,
2013-01-10 10:30:00,61.2,53.6,30.42,ENE,68,1.0,1.0,76,0.00,,,0.00,Wunderground v.1.15,2013-01-10 15:30:00,
2013-01-10 10:35:00,61.9,53.9,30.41,East,97,2.0,2.0,75,0.00,,,0.00,Wunderground v.1.15,2013-01-10 15:35:00,
2013-01-10 10:40:00,62.6,53.8,30.41,ESE,112,2.0,2.0,73,0.00,,,0.00,Wunderground v.1.15,2013-01-10 15:40:00,
2013-01-10 10:45:00,62.7,53.5,30.41,SW,228,2.0,2.0,72,0.00,,,0.00,Wunderground v.1.15,2013-01-10 15:45:00,
2013-01-10 10:50:00,62.6,53.4,30.41,NE,51,3.0,4.0,72,0.00,,,0.00,Wunderground v.1.15,2013-01-10 15:50:00,
2013-01-10 10:55:00,62.9,53.7,30.41,ENE,75,3.0,4.0,72,0.00,,,0.00,Wunderground v.1.15,2013-01-10 15:55:00,
2013-01-10 11:00:00,63.2,54.0,30.40,ENE,73,2.0,2.0,72,0.00,,,0.00,Wunderground v.1.15,2013-01-10 16:00:00,
2013-01-10 11:10:00,63.7,53.7,30.40,ENE,70,2.0,3.0,70,0.00,,,0.00,Wunderground v.1.15,2013-01-10 16:10:00,
2013-01-10 11:15:00,63.7,53.7,30.40,ENE,77,3.0,3.0,70,0.00,,,0.00,Wunderground v.1.15,2013-01-10 16:15:00,
2013-01-10 11:20:00,63.9,53.9,30.40,East,88,3.0,3.0,70,0.00,,,0.00,Wunderground v.1.15,2013-01-10 16:20:00,
2013-01-10 11:25:00,64.5,54.1,30.40,ENE,63,2.0,3.0,69,0.00,,,0.00,Wunderground v.1.15,2013-01-10 16:25:00,
2013-01-10 11:30:00,64.9,54.5,30.39,ENE,71,2.0,2.0,69,0.00,,,0.00,Wunderground v.1.15,2013-01-10 16:30:00,
2013-01-10 11:35:00,65.4,54.6,30.39,ESE,116,2.0,2.0,68,0.00,,,0.00,Wunderground v.1.15,2013-01-10 16:35:00,
2013-01-10 11:40:00,65.6,54.3,30.39,ENE,70,2.0,4.0,67,0.00,,,0.00,Wunderground v.1.15,2013-01-10 16:40:00,
2013-01-10 11:45:00,65.6,54.3,30.39,NE,48,3.0,4.0,67,0.00,,,0.00,Wunderground v.1.15,2013-01-10 16:45:00,
2013-01-10 11:50:00,66.0,53.9,30.38,ENE,60,3.0,4.0,65,0.00,,,0.00,Wunderground v.1.15,2013-01-10 16:50:00,
2013-01-10 11:55:00,66.5,54.8,30.38,ENE,75,3.0,5.0,66,0.00,,,0.00,Wunderground v.1.15,2013-01-10 16:55:00,
2013-01-10 12:00:00,66.9,54.7,30.37,East,79,2.0,3.0,65,0.00,,,0.00,Wunderground v.1.15,2013-01-10 17:00:00,
2013-01-10 12:05:00,67.0,54.4,30.37,ENE,74,2.0,3.0,64,0.00,,,0.00,Wunderground v.1.15,2013-01-10 17:05:00,
2013-01-10 12:10:00,67.2,54.6,30.37,ENE,74,3.0,3.0,64,0.00,,,0.00,Wunderground v.1.15,2013-01-10 17:10:00,
2013-01-10 12:15:00,67.5,54.9,30.36,East,92,3.0,3.0,64,0.00,,,0.00,Wunderground v.1.15,2013-01-10 17:15:00,
2013-01-10 12:20:00,68.0,54.9,30.36,East,91,2.0,2.0,63,0.00,,,0.00,Wunderground v.1.15,2013-01-10 17:20:00,
2013-01-10 12:25:00,68.5,55.0,30.36,NE,51,2.0,3.0,62,0.00,,,0.00,Wunderground v.1.15,2013-01-10 17:25:00,
2013-01-10 12:30:00,68.8,54.8,30.36,North,5,2.0,2.0,61,0.00,,,0.00,Wunderground v.1.15,2013-01-10 17:30:00,
2013-01-10 12:35:00,69.3,55.7,30.35,East,87,2.0,2.0,62,0.00,,,0.00,Wunderground v.1.15,2013-01-10 17:35:00,
2013-01-10 12:40:00,69.4,54.9,30.35,East,85,2.0,2.0,60,0.00,,,0.00,Wunderground v.1.15,2013-01-10 17:40:00,
2013-01-10 12:45:00,69.6,55.1,30.35,East,91,2.0,2.0,60,0.00,,,0.00,Wunderground v.1.15,2013-01-10 17:45:00,
2013-01-10 12:50:00,70.1,55.1,30.34,NE,44,2.0,2.0,59,0.00,,,0.00,Wunderground v.1.15,2013-01-10 17:50:00,
2013-01-10 12:55:00,70.2,55.7,30.34,ESE,107,2.0,3.0,60,0.00,,,0.00,Wunderground v.1.15,2013-01-10 17:55:00,
2013-01-10 13:00:00,70.2,54.2,30.34,SSE,166,2.0,5.0,57,0.00,,,0.00,Wunderground v.1.15,2013-01-10 18:00:00,
2013-01-10 13:05:00,70.1,54.6,30.34,NE,51,2.0,5.0,58,0.00,,,0.00,Wunderground v.1.15,2013-01-10 18:05:00,
2013-01-10 13:10:00,69.8,54.4,30.34,ESE,116,2.0,4.0,58,0.00,,,0.00,Wunderground v.1.15,2013-01-10 18:10:00,
2013-01-10 13:15:00,70.0,55.0,30.34,East,100,2.0,4.0,59,0.00,,,0.00,Wunderground v.1.15,2013-01-10 18:15:00,
2013-01-10 13:20:00,69.9,54.9,30.33,ENE,77,2.0,2.0,59,0.00,,,0.00,Wunderground v.1.15,2013-01-10 18:20:00,
2013-01-10 13:25:00,70.4,54.9,30.33,SE,134,2.0,2.0,58,0.00,,,0.00,Wunderground v.1.15,2013-01-10 18:25:00,
2013-01-10 13:30:00,70.7,55.2,30.33,SSE,160,2.0,2.0,58,0.00,,,0.00,Wunderground v.1.15,2013-01-10 18:30:00,
2013-01-10 13:35:00,70.9,55.9,30.33,East,92,2.0,2.0,59,0.00,,,0.00,Wunderground v.1.15,2013-01-10 18:35:00,
2013-01-10 13:40:00,71.1,55.1,30.33,East,93,2.0,2.0,57,0.00,,,0.00,Wunderground v.1.15,2013-01-10 18:40:00,
2013-01-10 13:45:00,71.4,55.4,30.33,East,81,1.0,2.0,57,0.00,,,0.00,Wunderground v.1.15,2013-01-10 18:45:00,
2013-01-10 13:55:00,71.8,55.7,30.33,NE,51,2.0,2.0,57,0.00,,,0.00,Wunderground v.1.15,2013-01-10 18:55:00,
2013-01-10 14:00:00,71.8,55.3,30.32,SSE,162,2.0,2.0,56,0.00,,,0.00,Wunderground v.1.15,2013-01-10 19:00:00,
2013-01-10 14:10:00,71.7,55.2,30.32,East,93,3.0,3.0,56,0.00,,,0.00,Wunderground v.1.15,2013-01-10 19:10:00,
2013-01-10 14:15:00,71.8,55.3,30.32,SE,141,2.0,3.0,56,0.00,,,0.00,Wunderground v.1.15,2013-01-10 19:15:00,
2013-01-10 14:20:00,72.0,55.4,30.32,East,95,2.0,2.0,56,0.00,,,0.00,Wunderground v.1.15,2013-01-10 19:20:00,
2013-01-10 14:30:00,72.1,55.5,30.32,SE,127,2.0,2.0,56,0.00,,,0.00,Wunderground v.1.15,2013-01-10 19:30:00,
2013-01-10 14:35:00,72.3,55.7,30.32,SSE,149,2.0,2.0,56,0.00,,,0.00,Wunderground v.1.15,2013-01-10 19:35:00,
2013-01-10 14:40:00,72.5,55.9,30.32,SSE,160,2.0,2.0,56,0.00,,,0.00,Wunderground v.1.15,2013-01-10 19:40:00,
2013-01-10 14:45:00,72.3,55.2,30.31,East,84,3.0,3.0,55,0.00,,,0.00,Wunderground v.1.15,2013-01-10 19:45:00,
2013-01-10 14:50:00,72.2,54.6,30.31,ENE,71,2.0,2.0,54,0.00,,,0.00,Wunderground v.1.15,2013-01-10 19:50:00,
2013-01-10 14:55:00,72.1,55.0,30.31,East,98,2.0,2.0,55,0.00,,,0.00,Wunderground v.1.15,2013-01-10 19:55:00,
2013-01-10 15:00:00,72.0,54.9,30.31,East,91,2.0,2.0,55,0.00,,,0.00,Wunderground v.1.15,2013-01-10 20:00:00,
2013-01-10 15:05:00,72.0,55.4,30.31,East,95,2.0,2.0,56,0.00,,,0.00,Wunderground v.1.15,2013-01-10 20:05:00,
2013-01-10 15:10:00,71.9,55.3,30.31,East,89,2.0,2.0,56,0.00,,,0.00,Wunderground v.1.15,2013-01-10 20:10:00,
2013-01-10 15:20:00,71.9,55.3,30.31,East,84,1.0,2.0,56,0.00,,,0.00,Wunderground v.1.15,2013-01-10 20:20:00,
2013-01-10 15:25:00,71.6,55.1,30.31,ENE,78,1.0,2.0,56,0.00,,,0.00,Wunderground v.1.15,2013-01-10 20:25:00,
2013-01-10 15:35:00,71.8,55.7,30.31,East,92,1.0,2.0,57,0.00,,,0.00,Wunderground v.1.15,2013-01-10 20:35:00,
2013-01-10 15:40:00,71.6,55.1,30.31,East,82,2.0,3.0,56,0.00,,,0.00,Wunderground v.1.15,2013-01-10 20:40:00,
2013-01-10 15:45:00,71.5,55.5,30.31,East,101,2.0,3.0,57,0.00,,,0.00,Wunderground v.1.15,2013-01-10 20:45:00,
2013-01-10 15:55:00,71.4,54.4,30.31,East,86,1.0,2.0,55,0.00,,,0.00,Wunderground v.1.15,2013-01-10 20:55:00,
2013-01-10 16:00:00,71.5,54.5,30.31,ENE,72,1.0,1.0,55,0.00,,,0.00,Wunderground v.1.15,2013-01-10 21:00:00,
2013-01-10 16:05:00,71.6,54.6,30.31,ENE,72,2.0,2.0,55,0.00,,,0.00,Wunderground v.1.15,2013-01-10 21:05:00,
2013-01-10 16:10:00,71.4,54.9,30.31,ESE,111,2.0,2.0,56,0.00,,,0.00,Wunderground v.1.15,2013-01-10 21:10:00,
2013-01-10 16:15:00,70.9,54.9,30.31,East,101,2.0,2.0,57,0.00,,,0.00,Wunderground v.1.15,2013-01-10 21:15:00,
2013-01-10 16:20:00,70.3,54.3,30.31,ENE,65,1.0,1.0,57,0.00,,,0.00,Wunderground v.1.15,2013-01-10 21:20:00,
2013-01-10 16:25:00,69.8,54.4,30.31,ENE,74,1.0,1.0,58,0.00,,,0.00,Wunderground v.1.15,2013-01-10 21:25:00,
2013-01-10 16:30:00,69.6,54.6,30.31,East,92,1.0,1.0,59,0.00,,,0.00,Wunderground v.1.15,2013-01-10 21:30:00,
2013-01-10 16:35:00,69.2,54.7,30.31,ENE,78,1.0,1.0,60,0.00,,,0.00,Wunderground v.1.15,2013-01-10 21:35:00,
2013-01-10 16:40:00,68.9,54.9,30.31,ENE,77,0.0,0.0,61,0.00,,,0.00,Wunderground v.1.15,2013-01-10 21:40:00,
2013-01-10 16:45:00,68.6,54.6,30.32,ENE,77,0.0,0.0,61,0.00,,,0.00,Wunderground v.1.15,2013-01-10 21:45:00,
2013-01-10 16:50:00,68.2,55.1,30.32,ENE,77,0.0,0.0,63,0.00,,,0.00,Wunderground v.1.15,2013-01-10 21:50:00,
2013-01-10 16:55:00,67.6,55.0,30.32,ENE,78,0.0,0.0,64,0.00,,,0.00,Wunderground v.1.15,2013-01-10 21:55:00,
2013-01-10 17:00:00,67.0,55.3,30.32,ENE,78,0.0,0.0,66,0.00,,,0.00,Wunderground v.1.15,2013-01-10 22:00:00,
2013-01-10 17:10:00,66.0,55.5,30.32,ENE,78,0.0,0.0,69,0.00,,,0.00,Wunderground v.1.15,2013-01-10 22:10:00,
2013-01-10 17:20:00,65.2,55.6,30.32,ENE,78,0.0,0.0,71,0.00,,,0.00,Wunderground v.1.15,2013-01-10 22:20:00,
2013-01-10 17:25:00,64.7,55.8,30.32,ENE,78,0.0,0.0,73,0.00,,,0.00,Wunderground v.1.15,2013-01-10 22:25:00,
2013-01-10 17:30:00,64.1,55.6,30.32,ENE,77,0.0,0.0,74,0.00,,,0.00,Wunderground v.1.15,2013-01-10 22:30:00,
2013-01-10 17:35:00,63.5,55.4,30.32,ENE,77,0.0,0.0,75,0.00,,,0.00,Wunderground v.1.15,2013-01-10 22:35:00,
2013-01-10 17:40:00,63.0,55.3,30.32,ENE,77,0.0,0.0,76,0.00,,,0.00,Wunderground v.1.15,2013-01-10 22:40:00,
2013-01-10 17:50:00,62.0,55.1,30.32,ENE,77,0.0,0.0,78,0.00,,,0.00,Wunderground v.1.15,2013-01-10 22:50:00,
2013-01-10 17:55:00,61.5,54.9,30.32,ENE,78,0.0,0.0,79,0.00,,,0.00,Wunderground v.1.15,2013-01-10 22:55:00,
2013-01-10 18:00:00,61.2,54.6,30.33,ENE,77,0.0,0.0,79,0.00,,,0.00,Wunderground v.1.15,2013-01-10 23:00:00,
2013-01-10 18:05:00,60.9,54.7,30.33,ENE,77,0.0,0.0,80,0.00,,,0.00,Wunderground v.1.15,2013-01-10 23:05:00,
2013-01-10 18:10:00,60.8,54.6,30.33,ENE,77,0.0,0.0,80,0.00,,,0.00,Wunderground v.1.15,2013-01-10 23:10:00,
2013-01-10 18:25:00,60.4,54.9,30.33,ENE,77,0.0,0.0,82,0.00,,,0.00,Wunderground v.1.15,2013-01-10 23:25:00,
2013-01-10 18:30:00,60.4,54.9,30.33,ENE,77,0.0,0.0,82,0.00,,,0.00,Wunderground v.1.15,2013-01-10 23:30:00,
2013-01-10 18:35:00,60.4,54.5,30.33,ENE,78,0.0,0.0,81,0.00,,,0.00,Wunderground v.1.15,2013-01-10 23:35:00,
2013-01-10 18:40:00,60.5,54.3,30.33,ENE,77,0.0,0.0,80,0.00,,,0.00,Wunderground v.1.15,2013-01-10 23:40:00,
2013-01-10 18:45:00,60.9,54.7,30.33,ENE,77,0.0,0.0,80,0.00,,,0.00,Wunderground v.1.15,2013-01-10 23:45:00,
2013-01-10 18:50:00,61.0,54.8,30.33,ENE,77,0.0,0.0,80,0.00,,,0.00,Wunderground v.1.15,2013-01-10 23:50:00,
2013-01-10 18:55:00,61.0,54.4,30.33,East,81,0.0,0.0,79,0.00,,,0.00,Wunderground v.1.15,2013-01-10 23:55:00,
2013-01-10 19:00:00,61.1,54.2,30.33,East,81,0.0,0.0,78,0.00,,,0.00,Wunderground v.1.15,2013-01-11 00:00:00,
2013-01-10 19:05:00,61.4,54.1,30.33,East,81,0.0,0.0,77,0.00,,,0.00,Wunderground v.1.15,2013-01-11 00:05:00,
2013-01-10 19:10:00,61.6,54.7,30.33,East,79,0.0,0.0,78,0.00,,,0.00,Wunderground v.1.15,2013-01-11 00:10:00,
2013-01-10 19:15:00,61.7,54.1,30.33,East,79,0.0,0.0,76,0.00,,,0.00,Wunderground v.1.15,2013-01-11 00:15:00,
2013-01-10 19:20:00,62.0,54.3,30.33,East,79,0.0,0.0,76,0.00,,,0.00,Wunderground v.1.15,2013-01-11 00:20:00,
2013-01-10 19:25:00,62.1,54.1,30.33,East,85,0.0,0.0,75,0.00,,,0.00,Wunderground v.1.15,2013-01-11 00:25:00,
2013-01-10 19:30:00,62.2,54.2,30.33,East,85,0.0,0.0,75,0.00,,,0.00,Wunderground v.1.15,2013-01-11 00:30:00,
2013-01-10 19:35:00,62.0,54.3,30.32,East,85,0.0,0.0,76,0.00,,,0.00,Wunderground v.1.15,2013-01-11 00:35:00,
2013-01-10 19:40:00,61.8,54.2,30.32,East,86,0.0,0.0,76,0.00,,,0.00,Wunderground v.1.15,2013-01-11 00:40:00,
2013-01-10 19:45:00,61.8,54.2,30.32,East,86,0.0,0.0,76,0.00,,,0.00,Wunderground v.1.15,2013-01-11 00:45:00,
2013-01-10 19:50:00,61.6,54.0,30.32,East,85,0.0,0.0,76,0.00,,,0.00,Wunderground v.1.15,2013-01-11 00:50:00,
2013-01-10 19:55:00,61.6,53.6,30.32,East,86,0.0,0.0,75,0.00,,,0.00,Wunderground v.1.15,2013-01-11 00:55:00,
2013-01-10 20:00:00,61.5,53.9,30.32,East,85,0.0,0.0,76,0.00,,,0.00,Wunderground v.1.15,2013-01-11 01:00:00,
2013-01-10 20:10:00,61.3,53.7,30.32,East,86,0.0,0.0,76,0.00,,,0.00,Wunderground v.1.15,2013-01-11 01:10:00,
2013-01-10 20:15:00,61.1,53.5,30.32,East,85,0.0,0.0,76,0.00,,,0.00,Wunderground v.1.15,2013-01-11 01:15:00,
2013-01-10 20:20:00,60.9,53.6,30.32,East,84,0.0,0.0,77,0.00,,,0.00,Wunderground v.1.15,2013-01-11 01:20:00,
2013-01-10 20:30:00,60.5,53.3,30.32,East,84,0.0,0.0,77,0.00,,,0.00,Wunderground v.1.15,2013-01-11 01:30:00,
2013-01-10 20:40:00,60.0,53.1,30.31,East,84,0.0,0.0,78,0.00,,,0.00,Wunderground v.1.15,2013-01-11 01:40:00,
2013-01-10 20:45:00,60.0,53.1,30.31,East,84,0.0,0.0,78,0.00,,,0.00,Wunderground v.1.15,2013-01-11 01:45:00,
2013-01-10 20:50:00,59.6,53.1,30.31,East,85,0.0,0.0,79,0.00,,,0.00,Wunderground v.1.15,2013-01-11 01:50:00,
2013-01-10 20:55:00,59.2,52.7,30.31,East,85,0.0,0.0,79,0.00,,,0.00,Wunderground v.1.15,2013-01-11 01:55:00,
2013-01-10 21:00:00,58.8,52.6,30.31,East,84,0.0,0.0,80,0.00,,,0.00,Wunderground v.1.15,2013-01-11 02:00:00,
2013-01-10 21:05:00,58.5,52.7,30.31,East,85,0.0,0.0,81,0.00,,,0.00,Wunderground v.1.15,2013-01-11 02:05:00,
2013-01-10 21:10:00,58.0,52.5,30.31,East,85,0.0,0.0,82,0.00,,,0.00,Wunderground v.1.15,2013-01-11 02:10:00,
2013-01-10 21:15:00,57.8,52.3,30.31,East,85,0.0,0.0,82,0.00,,,0.00,Wunderground v.1.15,2013-01-11 02:15:00,
2013-01-10 21:20:00,57.5,52.4,30.31,East,84,0.0,0.0,83,0.00,,,0.00,Wunderground v.1.15,2013-01-11 02:20:00,
2013-01-10 21:25:00,57.4,52.6,30.30,East,85,0.0,0.0,84,0.00,,,0.00,Wunderground v.1.15,2013-01-11 02:25:00,
2013-01-10 21:30:00,57.2,52.4,30.30,East,85,0.0,0.0,84,0.00,,,0.00,Wunderground v.1.15,2013-01-11 02:30:00,
2013-01-10 21:35:00,57.1,52.3,30.30,East,84,0.0,0.0,84,0.00,,,0.00,Wunderground v.1.15,2013-01-11 02:35:00,
2013-01-10 21:40:00,57.2,52.4,30.30,East,84,0.0,0.0,84,0.00,,,0.00,Wunderground v.1.15,2013-01-11 02:40:00,
2013-01-10 21:45:00,57.5,52.4,30.30,ENE,78,0.0,0.0,83,0.00,,,0.00,Wunderground v.1.15,2013-01-11 02:45:00,
2013-01-10 21:55:00,58.1,52.3,30.30,ENE,77,0.0,0.0,81,0.00,,,0.00,Wunderground v.1.15,2013-01-11 02:55:00,
2013-01-10 22:00:00,58.3,52.5,30.30,ENE,77,0.0,0.0,81,0.00,,,0.00,Wunderground v.1.15,2013-01-11 03:00:00,
2013-01-10 22:10:00,58.5,52.4,30.30,ENE,77,0.0,1.0,80,0.00,,,0.00,Wunderground v.1.15,2013-01-11 03:10:00,
2013-01-10 22:15:00,58.5,52.4,30.30,ENE,78,0.0,1.0,80,0.00,,,0.00,Wunderground v.1.15,2013-01-11 03:15:00,
2013-01-10 22:20:00,58.4,52.3,30.30,ENE,78,0.0,0.0,80,0.00,,,0.00,Wunderground v.1.15,2013-01-11 03:20:00,
2013-01-10 22:25:00,58.4,52.3,30.30,ENE,77,0.0,0.0,80,0.00,,,0.00,Wunderground v.1.15,2013-01-11 03:25:00,
2013-01-10 22:30:00,58.7,52.9,30.30,SSE,153,1.0,2.0,81,0.00,,,0.00,Wunderground v.1.15,2013-01-11 03:30:00,
2013-01-10 22:35:00,58.7,53.2,30.30,ESE,113,1.0,2.0,82,0.00,,,0.00,Wunderground v.1.15,2013-01-11 03:35:00,
2013-01-10 22:40:00,58.6,53.5,30.30,ESE,119,2.0,2.0,83,0.00,,,0.00,Wunderground v.1.15,2013-01-11 03:40:00,
2013-01-10 22:45:00,58.4,53.6,30.29,ESE,108,1.0,2.0,84,0.00,,,0.00,Wunderground v.1.15,2013-01-11 03:45:00,
2013-01-10 22:50:00,58.1,53.9,30.29,ENE,64,0.0,0.0,86,0.00,,,0.00,Wunderground v.1.15,2013-01-11 03:50:00,
2013-01-10 22:55:00,58.0,53.8,30.29,ENE,64,0.0,0.0,86,0.00,,,0.00,Wunderground v.1.15,2013-01-11 03:55:00,
2013-01-10 23:00:00,57.8,54.0,30.29,East,90,0.0,1.0,87,0.00,,,0.00,Wunderground v.1.15,2013-01-11 04:00:00,
2013-01-10 23:05:00,57.7,53.9,30.29,SE,128,0.0,1.0,87,0.00,,,0.00,Wunderground v.1.15,2013-01-11 04:05:00,
2013-01-10 23:10:00,57.6,53.8,30.29,SE,128,0.0,0.0,87,0.00,,,0.00,Wunderground v.1.15,2013-01-11 04:10:00,
2013-01-10 23:15:00,57.5,54.0,30.28,SE,128,0.0,0.0,88,0.00,,,0.00,Wunderground v.1.15,2013-01-11 04:15:00,
2013-01-10 23:20:00,57.4,53.9,30.28,ESE,121,0.0,0.0,88,0.00,,,0.00,Wunderground v.1.15,2013-01-11 04:20:00,
2013-01-10 23:30:00,57.2,53.7,30.28,ESE,121,0.0,0.0,88,0.00,,,0.00,Wunderground v.1.15,2013-01-11 04:30:00,
2013-01-10 23:35:00,57.1,53.6,30.28,ESE,122,0.0,0.0,88,0.00,,,0.00,Wunderground v.1.15,2013-01-11 04:35:00,
2013-01-10 23:40:00,57.0,53.5,30.28,ESE,121,0.0,0.0,88,0.00,,,0.00,Wunderground v.1.15,2013-01-11 04:40:00,
2013-01-10 23:45:00,57.0,53.5,30.28,ESE,115,0.0,0.0,88,0.00,,,0.00,Wunderground v.1.15,2013-01-11 04:45:00,
2013-01-10 23:50:00,57.0,53.8,30.28,ESE,115,0.0,0.0,89,0.00,,,0.00,Wunderground v.1.15,2013-01-11 04:50:00,
2013-01-10 23:55:00,57.0,53.8,30.28,ESE,115,0.0,0.0,89,0.00,,,0.00,Wunderground v.1.15,2013-01-11 04:55:00,